Content
SEND FEEDBACK

Daily
Averages
Monthly
Summary
United States of America

ROCK HILL, NEW YORK


Home > North America > United States > New York
Elevation: 1260 feet     Latitude: 41 35N     Longitude: 074 37W

WEATHER
 
SELECT A DAY
Number of Records: 450,498;   Date Range: 1/1/95 - 10/20/14
 
SHARE

PRINT THIS DATA

[ ← Previous Day ]
WEATHER ALMANAC - APRIL 28, 2014
[ Next Day → ]
[ °C ]   °F
Weather ElementAverageHighLow
Temperature47.5 °F60.8 °F (3:55 pm)32 °F (6:35 am)
Dewpoint30.5 °F33.8 °F (12:35 am)26.6 °F (2:35 pm)
Humidity56.1 %93 % (7:15 am)29 % (3:55 pm)
Barometer30.08 in30.15 in (12:35 am)30.01 in (3:55 pm)
Wind Speed5.6 mph12.7 mph (6:35 pm)
Weather ElementAverage
Visibility10 mi
Wind DirectionS (181.2 °)

Weather ElementTotal
Precipitation---
Heating Degree Days18.6 (Base 65)
Averaged from 67 records on April 28, 2014
WEATHER CONDITIONS BREAKOUT
WIND DIRECTION BREAKOUT
WEATHER BY HOUR - APRIL 28, 2014
[ °C ]   °F
Local TimeTemperatureDewpointHumidityBarometerVisibilityWind DirectionWind SpeedGust SpeedPrecipitationEventsConditions
12:35 AM37.4 °F33.8 °F87 %30.15 in10.0 miNNW (330°)6.9 mphClear
12:55 AM37.4 °F33.8 °F87 %30.13 in10.0 miNNW (340°)3.5 mphClear
1:15 AM37.4 °F30.2 °F75 %30.12 in10.0 miNorth (350°)5.8 mphClear
1:35 AM37.4 °F32.0 °F81 %30.12 in10.0 miNorth (360°)9.2 mphClear
1:55 AM37.4 °F32.0 °F81 %30.11 in10.0 miNNW (330°)5.8 mphClear
2:15 AM37.4 °F32.0 °F81 %30.11 in10.0 miNNW (330°)4.6 mphClear
2:35 AM37.4 °F30.2 °F75 %30.11 in10.0 miNNW (340°)5.8 mphClear
2:55 AM37.4 °F30.2 °F75 %30.09 in10.0 miWNW (300°)3.5 mphClear
3:15 AM37.4 °F30.2 °F75 %30.09 in10.0 miNW (310°)4.6 mphClear
3:35 AM35.6 °F30.2 °F81 %30.08 in10.0 miNW (320°)3.5 mphClear
4:15 AM35.6 °F30.2 °F81 %30.08 in10.0 miWNW (290°)4.6 mphClear
4:35 AM35.6 °F30.2 °F81 %30.08 in10.0 miNW (310°)3.5 mphClear
4:55 AM33.8 °F30.2 °F87 %30.08 in10.0 miWest (280°)3.5 mphClear
5:15 AM35.6 °F28.4 °F75 %30.09 in10.0 miNNW (330°)3.5 mphClear
5:35 AM33.8 °F30.2 °F87 %30.10 in10.0 miNW (310°)3.5 mphClear
5:55 AM33.8 °F30.2 °F87 %30.10 in10.0 miNW (310°)3.5 mphClear
6:15 AM33.8 °F30.2 °F87 %30.12 in10.0 miWNW (290°)3.5 mphClear
6:35 AM32.0 °F28.4 °F87 %30.12 in10.0 miWNW (290°)5.8 mphClear
6:55 AM33.8 °F30.2 °F87 %30.12 in10.0 miNNW (330°)4.6 mphClear
7:15 AM35.6 °F33.8 °F93 %30.12 in10.0 miCalmClear
7:35 AM37.4 °F33.8 °F87 %30.12 in10.0 miNW (320°)3.5 mphClear
7:55 AM39.2 °F33.8 °F81 %30.13 in10.0 miNW (310°)5.8 mphClear
8:15 AM41.0 °F33.8 °F76 %30.13 in10.0 miNW (320°)5.8 mphClear
8:35 AM42.8 °F32.0 °F66 %30.13 in10.0 miWNW (290°)8.1 mphClear
8:55 AM44.6 °F33.8 °F66 %30.12 in10.0 miNW (320°)6.9 mphClear
9:15 AM44.6 °F33.8 °F66 %30.12 in10.0 miNW (320°)5.8 mphClear
9:35 AM46.4 °F33.8 °F62 %30.12 in10.0 miCalmClear
9:55 AM48.2 °F30.2 °F50 %30.12 in10.0 miNNE (30°)9.2 mphClear
10:15 AM48.2 °F30.2 °F50 %30.11 in10.0 miNE (50°)6.9 mphClear
10:55 AM50.0 °F32.0 °F50 %30.11 in10.0 miNE (50°)3.5 mphScattered Clouds
11:15 AM51.8 °F30.2 °F44 %30.11 in10.0 miCalmScattered Clouds
11:35 AM53.6 °F32.0 °F44 %30.09 in10.0 miCalmMostly Cloudy
11:55 AM53.6 °F30.2 °F41 %30.08 in10.0 miSSE (150°)6.9 mphMostly Cloudy
12:15 PM53.6 °F32.0 °F44 %30.06 in10.0 miWNW (290°)4.6 mphPartly Cloudy
12:35 PM55.4 °F30.2 °F38 %30.06 in10.0 miNorthClear
12:55 PM55.4 °F30.2 °F38 %30.05 in10.0 miNorthClear
1:15 PM55.4 °F28.4 °F36 %30.05 in10.0 miEast (80°)6.9 mphClear
1:35 PM57.2 °F28.4 °F33 %30.05 in10.0 miEast (80°)5.8 mphClear
1:55 PM57.2 °F28.4 °F33 %30.04 in10.0 miCalmClear
2:15 PM57.2 °F28.4 °F33 %30.04 in10.0 miWest (270°)3.5 mphClear
2:35 PM57.2 °F26.6 °F31 %30.03 in10.0 miCalmClear
2:55 PM59.0 °F28.4 °F31 %30.02 in10.0 miNNE (30°)6.9 mphClear
3:15 PM59.0 °F28.4 °F31 %30.02 in10.0 miWest (260°)6.9 mphClear
3:55 PM60.8 °F28.4 °F29 %30.01 in10.0 miWSW (250°)4.6 mphClear
4:15 PM60.8 °F28.4 °F29 %30.01 in10.0 miESE (120°)5.8 mphClear
4:35 PM60.8 °F28.4 °F29 %30.01 in10.0 miSSW (210°)3.5 mphClear
5:15 PM60.8 °F28.4 °F29 %30.02 in10.0 miSW (220°)4.6 mphClear
5:35 PM59.0 °F28.4 °F31 %30.02 in10.0 miSSE (150°)8.1 mphClear
5:55 PM59.0 °F28.4 °F31 %30.02 in10.0 miSSE (160°)5.8 mphClear
6:15 PM57.2 °F30.2 °F36 %30.03 in10.0 miESE (120°)11.5 mphClear
6:35 PM57.2 °F30.2 °F36 %30.03 in10.0 miSE (130°)12.7 mphClear
6:55 PM55.4 °F30.2 °F38 %30.03 in10.0 miSE (130°)10.4 mphClear
7:15 PM55.4 °F30.2 °F38 %30.04 in10.0 miSE (130°)9.2 mphClear
7:35 PM55.4 °F30.2 °F38 %30.05 in10.0 miESE (110°)8.1 mphClear
7:55 PM53.6 °F30.2 °F41 %30.05 in10.0 miESE (110°)8.1 mphClear
8:15 PM53.6 °F30.2 °F41 %30.07 in10.0 miNorthClear
8:35 PM51.8 °F30.2 °F44 %30.08 in10.0 miEast (100°)8.1 mphClear
8:55 PM51.8 °F30.2 °F44 %30.08 in10.0 miEast (100°)6.9 mphClear
9:15 PM51.8 °F30.2 °F44 %30.08 in10.0 miEast (100°)6.9 mphClear
9:35 PM51.8 °F30.2 °F44 %30.09 in10.0 miEast (100°)4.6 mphClear
9:55 PM50.0 °F30.2 °F47 %30.09 in10.0 miESE (110°)4.6 mphClear
10:15 PM50.0 °F30.2 °F47 %30.09 in10.0 miEast (90°)6.9 mphClear
10:35 PM50.0 °F30.2 °F47 %30.09 in10.0 miEast (80°)6.9 mphClear
10:55 PM48.2 °F30.2 °F50 %30.09 in10.0 miESE (110°)8.1 mphClear
11:15 PM48.2 °F32.0 °F54 %30.09 in10.0 miEast (100°)8.1 mphClear
11:35 PM48.2 °F32.0 °F54 %30.10 in10.0 miEast (100°)8.1 mphClear
11:55 PM48.2 °F32.0 °F54 %30.09 in10.0 miEast (90°)10.4 mphClear
Hourly data recorded from KMSV, located miles away from Rock Hill, New York







STORIES FROM OUR PARTNERS